[[{"header":{"parameterUnit":"m.s-1","parameterCategory":1,"la1":30.2991,"la2":30.254,"lo1":-89.0895,"lo2":-89.0444,"dy":0.0017,"dx":0.0017,"nx":28,"ny":28,"refTime":"2024-12-19T03:00:00:Z","depth":0,"parameterNumber":2,"parameterNumberName":"U-component_of_WINDS"},"data":[0,0,0,0,0,0,0,0,0,0,0,0,0,0,0,0,0,0,0,0,0,0,0,0,0,0,0,0,0,0,0,0,0,0,0,0,0,0,0,0,0,0,0,0,0,0,0,0,0,0,0,0,0,0,0,0,0,0,2.8092,2.8092,0,2.8135,2.8135,2.8136,2.8104,2.8103,2.8101,2.81,2.8143,2.8146,2.8148,0,0,0,0,0,0,0,0,0,0,0,0,0,2.7981,2.7983,2.8092,2.8092,2.8093,2.8135,2.8135,2.8136,2.8104,2.8103,2.8101,2.8099,2.8142,2.8145,2.8148,0,0,0,0,0,0,0,0,0,0,0,0,0,2.8027,2.7984,2.8091,2.8082,2.8081,2.8135,2.8136,2.8136,2.8105,2.8102,2.81,2.8098,2.8141,2.8145,2.8149,2.8213,0,0,2.816,2.8161,0,0,0,0,0,0,0,0,2.8025,2.8031,2.8083,2.8083,2.8082,2.8112,2.8112,2.8162,2.8105,2.8096,2.81,2.8097,2.8134,2.8138,2.8151,2.8215,2.8217,2.816,2.8162,2.8164,2.8165,0,0,0,0,0,0,0,2.8021,2.8029,2.8109,2.8084,2.8083,2.8075,2.808,2.8122,2.8126,2.8096,2.8094,2.81,2.8134,2.8148,2.8152,2.8218,2.816,2.8163,2.8166,2.8167,2.8338,2.834,0,0,0,0,0,0,2.8019,2.8027,2.8107,2.811,2.8048,2.8079,2.8084,2.8105,2.8126,2.8127,2.8102,2.8098,2.8142,2.8148,2.8153,2.8231,2.8164,2.8167,2.8169,2.8336,2.8339,2.8341,0,0,0,0,0,0,2.8017,2.8027,2.8106,2.8068,2.8077,2.8083,2.8107,2.8107,2.812,2.813,2.813,2.8115,2.8141,2.8148,2.8199,2.8232,2.8169,2.8172,2.8333,2.8337,2.834,2.8386,0,0,0,0,0,0,2.8014,2.8026,2.8051,2.8069,2.8079,2.8151,2.8109,2.8109,2.8127,2.8123,2.8142,2.8144,2.814,2.8194,2.8203,2.8236,2.8175,2.833,2.8335,2.8339,2.8382,2.8391,2.8399,0,0,0,0,0,2.801,2.8062,2.8052,2.8062,2.811,2.8152,2.8159,2.8154,2.813,2.8154,2.8161,2.8143,2.8227,2.8199,2.8209,2.8244,2.8328,2.8333,2.8339,2.8378,2.8389,2.8399,0,0,0,0,0,0,2.8046,2.8064,2.8053,2.8112,2.8131,2.8147,2.8178,2.8166,2.8191,2.8186,2.8179,2.8184,2.8237,2.8246,2.8214,2.8308,2.8274,2.8281,2.83,2.8311,2.8319,2.8316,2.8178,0,0,0,0,0,2.8061,2.8094,2.8108,2.8158,2.8168,2.8172,2.819,2.8185,2.8204,2.8212,2.8222,2.8241,2.8272,2.8292,2.8321,2.8383,2.8387,2.8412,2.8421,2.8428,2.8434,2.8468,2.848,2.8359,2.8359,2.8358,0,0,2.8092,2.8106,2.8127,2.8166,2.818,2.8214,2.8179,2.8216,2.8242,2.8217,2.8266,2.8274,2.8295,2.8352,2.8378,2.8361,2.8469,2.8434,2.844,2.8442,2.8475,2.8486,2.8497,2.8362,2.8361,2.8361,0,0,2.8166,2.818,2.8224,2.8239,2.8261,2.8264,2.8274,2.8293,2.8297,2.8346,2.8329,2.8359,2.8412,2.8428,2.8443,2.8525,2.851,2.8535,2.8579,2.8612,2.8622,2.863,2.866,2.867,2.8541,2.8541,2.8542,0,2.8202,2.8253,2.8248,2.8287,2.8305,2.8286,2.833,2.8345,2.8376,2.8388,2.8369,2.8436,2.8449,2.851,2.853,2.8543,2.8555,2.8532,2.8621,2.8629,2.8637,2.8665,2.8676,2.8544,2.8544,2.8544,2.8543,0,2.8296,2.8332,2.8364,2.8395,2.8417,2.8459,2.846,2.8483,2.8476,2.848,2.8531,2.8546,2.8578,2.8592,2.8586,2.8653,2.8641,2.8622,2.8587,2.8652,2.8678,2.8688,2.8548,2.8547,2.8547,2.8546,0,0,2.8392,2.8421,2.8433,2.8447,2.8471,2.8499,2.854,2.8572,2.8591,2.8614,2.8648,2.8694,2.8677,2.8694,2.869,2.8719,2.8784,2.8696,2.8696,2.8712,2.8859,2.8873,2.8885,2.8774,2.8776,2.8778,2.8857,0,2.8467,2.8539,2.8537,2.8604,2.8637,2.862,2.8657,2.8675,2.8681,2.871,2.8716,2.8749,2.8723,2.8734,2.8763,2.877,2.8813,2.8764,2.8806,2.8807,2.88,2.8899,2.8913,2.8987,2.8867,2.8869,2.887,0,2.8564,2.859,2.8661,2.8681,2.8695,2.8728,2.8757,2.8785,2.8807,2.8809,2.8829,2.882,2.8862,2.8827,2.8885,2.8852,2.8869,2.8876,2.8878,2.8881,2.8842,2.8904,2.901,2.9021,2.8886,2.8885,2.8883,0,2.8627,2.868,2.873,2.8742,2.8767,2.879,2.8802,2.8821,2.8841,2.8867,2.8879,2.891,2.8926,2.895,2.895,2.8925,2.9009,2.8974,2.9012,2.9012,2.9029,2.9028,2.914,2.9042,2.9041,2.9041,2.9041,0,2.871,2.8754,2.8758,2.8789,2.8838,2.8835,2.8884,2.8893,2.891,2.8942,2.893,2.896,2.8958,2.8989,2.8989,2.9037,2.9045,2.9047,2.9047,2.9048,2.9048,2.9058,2.9053,2.9044,2.9043,2.9043,2.9042,0,2.8789,2.8793,2.8846,2.8866,2.8872,2.8907,2.8924,2.8953,2.8958,2.8999,2.9008,2.9016,2.9052,2.9054,2.9095,2.9095,2.9154,2.9148,2.9147,2.9145,2.9183,2.9179,2.9305,2.9321,2.9213,2.9214,2.9215,0,2.8841,2.8875,2.8899,2.892,2.8933,2.8966,2.8987,2.8985,2.9007,2.9035,2.9061,2.9095,2.9123,2.9181,2.919,2.9221,2.9216,2.9258,2.922,2.9221,2.9216,2.9214,2.9217,2.9265,2.9266,2.9267,2.9268,0,2.8934,2.8935,2.8965,2.8997,2.9022,2.9047,2.9069,2.9087,2.9089,2.9114,2.9151,2.9172,2.9215,2.9249,2.9281,2.9292,2.928,2.928,2.929,2.9291,2.9289,2.929,2.9166,2.9276,2.9275,2.9275,2.9274,2.9274,2.9001,2.9031,2.9052,2.9087,2.9104,2.9126,2.9155,2.9164,2.9195,2.9229,2.9227,2.9268,2.9289,2.933,2.9344,2.9376,2.9362,2.9377,2.938,2.9384,2.9388,2.9285,2.9382,2.9381,2.9381,2.9381,2.9381,0,2.9093,2.9107,2.9139,2.9172,2.9199,2.9187,2.9212,2.9235,2.9271,2.9292,2.932,2.9363,2.9397,2.9409,2.9442,2.9465,2.9461,2.9474,2.9472,2.9475,2.9399,2.9386,2.9477,2.9477,2.9477,2.9477,2.9477,2.9477,2.9145,2.9194,2.9198,2.9256,2.9269,2.9309,2.9324,2.9345,2.9362,2.941,2.9439,2.9447,2.9465,2.9499,2.953,2.9533,2.9545,2.9561,2.9562,2.949,2.948,2.9471,2.9459,2.9564,2.9564,2.9635,2.9636,2.9636]},{"header":{"parameterUnit":"m.s-1","parameterCategory":1,"la1":30.2991,"la2":30.254,"lo1":-89.0895,"lo2":-89.0444,"dy":0.0017,"dx":0.0017,"nx":28,"ny":28,"refTime":"2024-12-19T03:00:00:Z","depth":0,"parameterNumber":3,"parameterNumberName":"V-component_of_WINDS"},"data":[0,0,0,0,0,0,0,0,0,0,0,0,0,0,0,0,0,0,0,0,0,0,0,0,0,0,0,0,0,0,0,0,0,0,0,0,0,0,0,0,0,0,0,0,0,0,0,0,0,0,0,0,0,0,0,0,0,0,-3.3542,-3.3544,0,-3.3671,-3.3672,-3.3674,-3.3688,-3.3687,-3.3686,-3.3685,-3.3816,-3.3821,-3.3825,0,0,0,0,0,0,0,0,0,0,0,0,0,-3.331,-3.3315,-3.3542,-3.3544,-3.3545,-3.3671,-3.3672,-3.3674,-3.3689,-3.3687,-3.3685,-3.3684,-3.3815,-3.382,-3.3826,0,0,0,0,0,0,0,0,0,0,0,0,0,-3.3422,-3.3316,-3.3542,-3.3568,-3.3571,-3.367,-3.3672,-3.3675,-3.3689,-3.3687,-3.3685,-3.3683,-3.3813,-3.382,-3.3827,-3.3909,0,0,-3.3848,-3.3851,0,0,0,0,0,0,0,0,-3.3416,-3.3431,-3.3562,-3.3566,-3.357,-3.3662,-3.3639,-3.3753,-3.3689,-3.3644,-3.3685,-3.3682,-3.3766,-3.3777,-3.3805,-3.3915,-3.392,-3.3849,-3.3853,-3.3856,-3.3858,0,0,0,0,0,0,0,-3.3408,-3.3425,-3.3593,-3.3564,-3.3569,-3.3573,-3.3587,-3.3661,-3.3714,-3.3648,-3.3649,-3.3664,-3.3768,-3.3799,-3.3809,-3.3922,-3.3848,-3.3855,-3.3859,-3.3862,-3.4108,-3.4111,0,0,0,0,0,0,-3.3395,-3.3419,-3.3589,-3.3597,-3.3487,-3.3579,-3.3594,-3.3634,-3.3714,-3.3724,-3.3666,-3.3665,-3.3787,-3.38,-3.3813,-3.3917,-3.3856,-3.3863,-3.3867,-3.4106,-3.4109,-3.4111,0,0,0,0,0,0,-3.339,-3.341,-3.3584,-3.3508,-3.3531,-3.3585,-3.363,-3.3638,-3.3668,-3.3727,-3.3737,-3.3687,-3.3786,-3.3803,-3.3885,-3.3921,-3.3866,-3.3872,-3.4103,-3.4107,-3.411,-3.4123,0,0,0,0,0,0,-3.3384,-3.3409,-3.344,-3.3509,-3.3535,-3.3653,-3.3632,-3.3642,-3.368,-3.368,-3.375,-3.3759,-3.3786,-3.3875,-3.3892,-3.393,-3.3878,-3.41,-3.4105,-3.4109,-3.4119,-3.4126,-3.4132,0,0,0,0,0,-3.3375,-3.3438,-3.3441,-3.3462,-3.3575,-3.3655,-3.367,-3.37,-3.3683,-3.3716,-3.3754,-3.3757,-3.3914,-3.3883,-3.3903,-3.3943,-3.4098,-3.4104,-3.4109,-3.4117,-3.4125,-3.4132,0,0,0,0,0,0,-3.3371,-3.3447,-3.3452,-3.3538,-3.359,-3.3658,-3.3699,-3.3707,-3.3765,-3.3762,-3.3796,-3.3812,-3.3893,-3.3926,-3.389,-3.4028,-3.4005,-3.4014,-3.4004,-3.4012,-3.4019,-3.401,-3.3883,0,0,0,0,0,-3.338,-3.3439,-3.3502,-3.3572,-3.3598,-3.3644,-3.368,-3.3699,-3.3754,-3.3776,-3.382,-3.3874,-3.3936,-3.3976,-3.4035,-3.4124,-3.4141,-3.4162,-3.4168,-3.4173,-3.4181,-3.4233,-3.4244,-3.4129,-3.4129,-3.4129,0,0,-3.3399,-3.3448,-3.3483,-3.3573,-3.3615,-3.3676,-3.3663,-3.3727,-3.3773,-3.3786,-3.3867,-3.3901,-3.3964,-3.405,-3.409,-3.408,-3.4217,-3.418,-3.4183,-3.4189,-3.424,-3.425,-3.426,-3.4132,-3.4132,-3.4131,0,0,-3.3466,-3.3508,-3.3572,-3.3616,-3.368,-3.3711,-3.3726,-3.3793,-3.3817,-3.3899,-3.391,-3.3966,-3.407,-3.4115,-3.4152,-3.4238,-3.4244,-3.4256,-3.429,-3.434,-3.4349,-3.4357,-3.439,-3.4401,-3.4264,-3.4264,-3.4264,0,-3.3482,-3.3574,-3.3604,-3.3669,-3.3709,-3.3724,-3.3791,-3.3831,-3.3912,-3.394,-3.3927,-3.4061,-3.4104,-3.4202,-3.4223,-3.4251,-3.4271,-3.4249,-3.4345,-3.4354,-3.4362,-3.4394,-3.4406,-3.4265,-3.4265,-3.4265,-3.4265,0,-3.3591,-3.3655,-3.3699,-3.3778,-3.3823,-3.3888,-3.3929,-3.3971,-3.3986,-3.4018,-3.4103,-3.4155,-3.4227,-3.4251,-3.4266,-3.4353,-3.4345,-3.4338,-3.4315,-3.4374,-3.4404,-3.4417,-3.4267,-3.4266,-3.4266,-3.4266,0,0,-3.3658,-3.3755,-3.377,-3.3808,-3.3881,-3.3931,-3.3998,-3.4069,-3.4105,-3.4161,-3.4219,-3.4308,-3.4304,-3.4345,-3.4365,-3.4409,-3.4477,-3.4397,-3.44,-3.4412,-3.4578,-3.4584,-3.4597,-3.4481,-3.4483,-3.4485,-3.4574,0,-3.3735,-3.3854,-3.3885,-3.3987,-3.4047,-3.4063,-3.4122,-3.4174,-3.4206,-3.4263,-3.4298,-3.4362,-3.435,-3.4375,-3.4419,-3.4459,-3.4511,-3.4453,-3.4536,-3.4539,-3.4522,-3.4613,-3.4618,-3.47,-3.4585,-3.4587,-3.4589,0,-3.384,-3.39,-3.4008,-3.4076,-3.4102,-3.4154,-3.4223,-3.4276,-3.4336,-3.4357,-3.4404,-3.4421,-3.4492,-3.4465,-3.4565,-3.4525,-3.4561,-3.4585,-3.4589,-3.46,-3.4568,-3.4627,-3.4726,-3.4739,-3.4608,-3.4606,-3.4605,0,-3.3881,-3.3988,-3.4067,-3.4098,-3.4179,-3.4215,-3.425,-3.4308,-3.435,-3.441,-3.4438,-3.4505,-3.4542,-3.4594,-3.4629,-3.4605,-3.4727,-3.4702,-3.4747,-3.4746,-3.4773,-3.4771,-3.4881,-3.4793,-3.4793,-3.4792,-3.4792,0,-3.3965,-3.4031,-3.4087,-3.4136,-3.4211,-3.4245,-3.4319,-3.4355,-3.4407,-3.4464,-3.4481,-3.4534,-3.4576,-3.4635,-3.4663,-3.4743,-3.4759,-3.4778,-3.4785,-3.4778,-3.4776,-3.4803,-3.4799,-3.4796,-3.4795,-3.4794,-3.4794,0,-3.4023,-3.4063,-3.4151,-3.4221,-3.424,-3.4293,-3.4353,-3.4401,-3.4434,-3.4507,-3.4526,-3.4578,-3.4649,-3.4688,-3.4777,-3.4795,-3.4885,-3.4888,-3.4865,-3.4869,-3.4913,-3.4909,-3.5045,-3.5066,-3.4962,-3.4963,-3.4964,0,-3.4075,-3.4126,-3.4202,-3.4242,-3.4278,-3.4341,-3.4384,-3.442,-3.4464,-3.4538,-3.4578,-3.465,-3.471,-3.4823,-3.4869,-3.4938,-3.4944,-3.4987,-3.4954,-3.4946,-3.4947,-3.4944,-3.4951,-3.4993,-3.4994,-3.4995,-3.4995,0,-3.4163,-3.4181,-3.4241,-3.4311,-3.4361,-3.4417,-3.4473,-3.4504,-3.455,-3.4599,-3.4672,-3.4718,-3.481,-3.4882,-3.4955,-3.4992,-3.5002,-3.5005,-3.502,-3.5014,-3.4999,-3.501,-3.4883,-3.5002,-3.5001,-3.5001,-3.5,-3.5,-3.4221,-3.4269,-3.433,-3.4398,-3.4444,-3.4496,-3.4546,-3.4586,-3.4648,-3.4725,-3.4743,-3.4821,-3.4881,-3.498,-3.5019,-3.5081,-3.5073,-3.5094,-3.5099,-3.5105,-3.5107,-3.4988,-3.5094,-3.5094,-3.5094,-3.5094,-3.5094,0,-3.4312,-3.4352,-3.4415,-3.4493,-3.4547,-3.4551,-3.4614,-3.4659,-3.4727,-3.4783,-3.4842,-3.4927,-3.4998,-3.505,-3.5122,-3.5162,-3.5169,-3.518,-3.5178,-3.5187,-3.5109,-3.509,-3.5174,-3.5174,-3.5174,-3.5174,-3.5174,-3.5174,-3.4366,-3.4447,-3.4473,-3.4578,-3.4618,-3.4695,-3.473,-3.4779,-3.4824,-3.4918,-3.4977,-3.5011,-3.5066,-3.5143,-3.5209,-3.5222,-3.5249,-3.526,-3.5275,-3.5201,-3.5192,-3.5184,-3.5167,-3.5265,-3.5265,-3.5348,-3.5349,-3.535]}]]